| time (UTC) | temp F | wind direction | speed MPH | gust MPH | rain 1hr in | rain 24hr in | rain mn in | humidity % | barometer mb |
| 20260506043345 | 34 | 24 | 1.0 | 3.0 | 0.00 | 0.00 | 0.00 | 63 | 1017.8 |
| 20260506041235 | 34 | 24 | 2.0 | 3.0 | 0.00 | 0.00 | 0.00 | 62 | 1017.9 |
| 20260506040213 | 34 | 24 | 4.0 | 6.0 | 0.00 | 0.00 | 0.00 | 62 | 1017.8 |
| 20260506035223 | 35 | 25 | 6.0 | 7.0 | 0.00 | 0.00 | 0.00 | 61 | 1017.8 |
| 20260506034158 | 35 | 28 | 6.0 | 7.0 | 0.00 | 0.00 | 0.00 | 60 | 1017.8 |
| 20260506033129 | 34 | 30 | 6.0 | 7.0 | 0.00 | 0.00 | 0.00 | 60 | 1017.8 |
| 20260506032111 | 34 | 32 | 4.0 | 6.0 | 0.00 | 0.00 | 0.00 | 60 | 1017.6 |
| 20260506031129 | 35 | 30 | 4.0 | 5.0 | 0.00 | 0.00 | 0.00 | 59 | 1017.6 |
| 20260506030140 | 35 | 30 | 5.0 | 8.0 | 0.00 | 0.00 | 0.00 | 57 | 1017.5 |
| 20260506025201 | 36 | 26 | 5.0 | 8.0 | 0.00 | 0.00 | 0.00 | 55 | 1017.4 |
| 20260506024131 | 37 | 30 | 5.0 | 8.0 | 0.00 | 0.00 | 0.00 | 54 | 1017.3 |
| 20260506023121 | 38 | 36 | 6.0 | 9.0 | 0.00 | 0.00 | 0.00 | 53 | 1017.1 |
| 20260506022117 | 38 | 36 | 8.0 | 13.0 | 0.00 | 0.00 | 0.00 | 52 | 1017.0 |
| 20260506020017 | 39 | 29 | 8.0 | 11.0 | 0.00 | 0.00 | 0.00 | 51 | 1016.8 |
| 20260506015011 | 40 | 15 | 8.0 | 14.0 | 0.00 | 0.00 | 0.00 | 50 | 1016.6 |
| 20260506013956 | 40 | 17 | 9.0 | 14.0 | 0.00 | 0.00 | 0.00 | 49 | 1016.4 |
| 20260506012923 | 40 | 24 | 10.0 | 17.0 | 0.00 | 0.00 | 0.00 | 49 | 1016.4 |
| 20260506011922 | 41 | 40 | 12.0 | 18.0 | 0.00 | 0.00 | 0.00 | 47 | 1016.3 |
| 20260506005710 | 42 | 17 | 14.0 | 19.0 | 0.00 | 0.00 | 0.00 | 45 | 1016.2 |
| 20260506004634 | 43 | 9 | 13.0 | 18.0 | 0.00 | 0.00 | 0.00 | 44 | 1016.0 |
| 20260506003600 | 44 | 10 | 13.0 | 22.0 | 0.00 | 0.00 | 0.00 | 42 | 1015.8 |
| 20260506001424 | 45 | 334 | 11.0 | 18.0 | 0.00 | 0.00 | 0.00 | 39 | 1015.7 |
| 20260506000428 | 44 | 326 | 10.0 | 24.0 | 0.00 | 0.00 | 0.00 | 40 | 1015.7 |
| 20260505235448 | 44 | 342 | 12.0 | 24.0 | 0.00 | 0.00 | 0.00 | 39 | 1015.7 |
| 20260505233315 | 45 | 331 | 13.0 | 22.0 | 0.00 | 0.00 | 0.00 | 38 | 1015.5 |
| 20260505232318 | 44 | 340 | 12.0 | 21.0 | 0.00 | 0.00 | 0.00 | 39 | 1015.5 |
| 20260505231251 | 44 | 321 | 12.0 | 25.0 | 0.00 | 0.00 | 0.00 | 39 | 1015.6 |
| 20260505230257 | 45 | 336 | 12.0 | 26.0 | 0.00 | 0.00 | 0.00 | 38 | 1015.4 |
| 20260505225238 | 45 | 338 | 13.0 | 26.0 | 0.00 | 0.00 | 0.00 | 37 | 1015.6 |
| 20260505223132 | 45 | 341 | 15.0 | 32.0 | 0.00 | 0.00 | 0.00 | 37 | 1015.5 |
| 20260505222054 | 45 | 343 | 16.0 | 30.0 | 0.00 | 0.00 | 0.00 | 37 | 1015.6 |
| 20260505221037 | 44 | 348 | 16.0 | 27.0 | 0.00 | 0.00 | 0.00 | 37 | 1015.6 |
| 20260505220009 | 45 | 330 | 14.0 | 27.0 | 0.00 | 0.00 | 0.00 | 36 | 1015.6 |
| 20260505214935 | 44 | 310 | 16.0 | 27.0 | 0.00 | 0.00 | 0.00 | 36 | 1015.6 |
| 20260505213905 | 45 | 330 | 14.0 | 23.0 | 0.00 | 0.00 | 0.00 | 36 | 1015.6 |
| 20260505212926 | 45 | 323 | 13.0 | 26.0 | 0.00 | 0.00 | 0.00 | 35 | 1015.6 |
| 20260505211943 | 44 | 350 | 15.0 | 26.0 | 0.00 | 0.00 | 0.00 | 34 | 1015.8 |
| 20260505210910 | 44 | 342 | 15.0 | 22.0 | 0.00 | 0.00 | 0.00 | 35 | 1015.8 |
| 20260505205846 | 44 | 335 | 13.0 | 22.0 | 0.00 | 0.00 | 0.00 | 36 | 1015.7 |
| 20260505204819 | 44 | 343 | 13.0 | 25.0 | 0.00 | 0.00 | 0.00 | 36 | 1015.8 |
| 20260505203822 | 44 | 313 | 13.0 | 25.0 | 0.00 | 0.00 | 0.00 | 36 | 1015.9 |
| 20260505202802 | 43 | 333 | 16.0 | 24.0 | 0.00 | 0.00 | 0.00 | 36 | 1015.8 |
| 20260505201749 | 43 | 327 | 13.0 | 22.0 | 0.00 | 0.00 | 0.00 | 36 | 1015.9 |
| 20260505200735 | 43 | 14 | 14.0 | 24.0 | 0.00 | 0.00 | 0.00 | 36 | 1016.0 |
| 20260505194525 | 43 | 0 | 14.0 | 25.0 | 0.00 | 0.00 | 0.00 | 37 | 1015.7 |
| 20260505193544 | 43 | 286 | 15.0 | 27.0 | 0.00 | 0.00 | 0.00 | 36 | 1015.8 |
| 20260505192551 | 43 | 0 | 14.0 | 31.0 | 0.00 | 0.00 | 0.00 | 36 | 1015.8 |
| 20260505191552 | 42 | 0 | 14.0 | 31.0 | 0.00 | 0.00 | 0.00 | 37 | 1015.7 |
| 20260505190518 | 42 | 340 | 16.0 | 24.0 | 0.00 | 0.00 | 0.00 | 38 | 1015.8 |
| 20260505185517 | 42 | 0 | 13.0 | 27.0 | 0.00 | 0.00 | 0.00 | 37 | 1015.7 |
| 20260505184500 | 42 | 0 | 14.0 | 27.0 | 0.00 | 0.00 | 0.00 | 37 | 1015.8 |
| 20260505182318 | 41 | 0 | 16.0 | 25.0 | 0.00 | 0.00 | 0.00 | 37 | 1015.6 |
| 20260505181310 | 41 | 304 | 15.0 | 27.0 | 0.00 | 0.00 | 0.00 | 38 | 1015.7 |
| 20260505173955 | 39 | 292 | 15.0 | 25.0 | 0.00 | 0.00 | 0.00 | 40 | 1015.9 |
| 20260505172927 | 39 | 330 | 16.0 | 25.0 | 0.00 | 0.00 | 0.00 | 42 | 1015.9 |
| 20260505171901 | 38 | 0 | 14.0 | 24.0 | 0.00 | 0.00 | 0.00 | 44 | 1015.8 |
| 20260505170834 | 38 | 0 | 15.0 | 29.0 | 0.00 | 0.00 | 0.00 | 47 | 1016.0 |
| 20260505165755 | 37 | 0 | 15.0 | 29.0 | 0.00 | 0.00 | 0.00 | 48 | 1016.0 |
| 20260505164758 | 37 | 0 | 15.0 | 25.0 | 0.00 | 0.00 | 0.00 | 46 | 1016.0 |
| 20260505163726 | 37 | 0 | 16.0 | 25.0 | 0.00 | 0.00 | 0.00 | 47 | 1016.1 |
| 20260505162704 | 37 | 0 | 15.0 | 26.0 | 0.00 | 0.00 | 0.00 | 46 | 1016.1 |
| 20260505161658 | 37 | 0 | 17.0 | 26.0 | 0.00 | 0.00 | 0.00 | 47 | 1016.0 |
| 20260505160703 | 36 | 0 | 14.0 | 25.0 | 0.00 | 0.00 | 0.00 | 49 | 1015.9 |
| 20260505152412 | 35 | 336 | 14.0 | 24.0 | 0.00 | 0.00 | 0.00 | 52 | 1016.1 |
| 20260505151408 | 36 | 336 | 13.0 | 23.0 | 0.00 | 0.00 | 0.00 | 50 | 1016.0 |
| 20260505150358 | 35 | 355 | 13.0 | 22.0 | 0.00 | 0.00 | 0.00 | 53 | 1016.2 |
| 20260505140328 | 33 | 0 | 14.0 | 22.0 | 0.00 | 0.00 | 0.00 | 65 | 1015.8 |
| 20260505124054 | 30 | 292 | 8.0 | 13.0 | 0.00 | 0.00 | 0.00 | 73 | 1014.8 |
| 20260505123059 | 29 | 288 | 6.0 | 9.0 | 0.00 | 0.00 | 0.00 | 74 | 1014.8 |
| 20260505122054 | 29 | 290 | 4.0 | 9.0 | 0.00 | 0.00 | 0.00 | 74 | 1014.7 |
| 20260505121018 | 29 | 286 | 6.0 | 9.0 | 0.00 | 0.00 | 0.00 | 73 | 1014.6 |
| 20260505114851 | 28 | 290 | 5.0 | 8.0 | 0.00 | 0.00 | 0.00 | 74 | 1014.4 |
| 20260505113904 | 28 | 275 | 6.0 | 9.0 | 0.00 | 0.00 | 0.00 | 74 | 1014.3 |
| 20260505112844 | 28 | 277 | 6.0 | 9.0 | 0.00 | 0.00 | 0.00 | 74 | 1014.2 |
| 20260505111818 | 27 | 281 | 5.0 | 8.0 | 0.00 | 0.00 | 0.00 | 75 | 1014.2 |
| 20260505110804 | 27 | 283 | 5.0 | 6.0 | 0.00 | 0.00 | 0.00 | 75 | 1014.1 |
| 20260505101444 | 28 | 298 | 4.0 | 6.0 | 0.00 | 0.00 | 0.00 | 72 | 1013.6 |
| 20260505100443 | 28 | 304 | 4.0 | 8.0 | 0.00 | 0.00 | 0.00 | 71 | 1013.5 |
| 20260505095415 | 29 | 311 | 5.0 | 8.0 | 0.00 | 0.00 | 0.00 | 70 | 1013.4 |
| 20260505094409 | 29 | 329 | 5.0 | 8.0 | 0.00 | 0.00 | 0.00 | 68 | 1013.3 |
| 20260505093347 | 30 | 325 | 5.0 | 8.0 | 0.00 | 0.00 | 0.00 | 66 | 1013.2 |
| 20260505092314 | 30 | 344 | 5.0 | 9.0 | 0.00 | 0.00 | 0.00 | 64 | 1013.0 |
| 20260505091314 | 31 | 11 | 6.0 | 10.0 | 0.00 | 0.00 | 0.00 | 63 | 1012.9 |
| 20260505090313 | 32 | 350 | 7.0 | 12.0 | 0.00 | 0.00 | 0.00 | 60 | 1012.9 |
| 20260505083048 | 35 | 344 | 8.0 | 14.0 | 0.00 | 0.00 | 0.00 | 58 | 1012.6 |
| 20260505082058 | 36 | 315 | 9.0 | 14.0 | 0.00 | 0.00 | 0.00 | 59 | 1012.5 |
| 20260505075910 | 36 | 337 | 9.0 | 14.0 | 0.00 | 0.00 | 0.00 | 64 | 1012.4 |
| 20260505074858 | 36 | 0 | 9.0 | 14.0 | 0.00 | 0.00 | 0.00 | 64 | 1012.4 |
| 20260505073846 | 36 | 318 | 9.0 | 13.0 | 0.00 | 0.00 | 0.00 | 64 | 1012.4 |
| 20260505072824 | 36 | 317 | 8.0 | 13.0 | 0.00 | 0.00 | 0.00 | 63 | 1012.4 |
| 20260505071840 | 36 | 331 | 8.0 | 11.0 | 0.00 | 0.00 | 0.00 | 64 | 1012.5 |
| 20260505064553 | 37 | 320 | 8.0 | 14.0 | 0.00 | 0.00 | 0.00 | 65 | 1012.4 |
| 20260505063601 | 37 | 321 | 8.0 | 14.0 | 0.00 | 0.00 | 0.00 | 65 | 1012.4 |
| 20260505062536 | 37 | 319 | 9.0 | 13.0 | 0.00 | 0.00 | 0.00 | 65 | 1012.4 |
| 20260505061559 | 37 | 313 | 9.0 | 18.0 | 0.00 | 0.00 | 0.00 | 65 | 1012.2 |
| 20260505055409 | 37 | 329 | 9.0 | 15.0 | 0.00 | 0.00 | 0.00 | 66 | 1012.1 |
| 20260505054406 | 37 | 306 | 7.0 | 12.0 | 0.00 | 0.00 | 0.00 | 67 | 1012.1 |
| 20260505053347 | 37 | 324 | 8.0 | 12.0 | 0.00 | 0.00 | 0.00 | 68 | 1012.1 |
| 20260505051246 | 36 | 0 | 8.0 | 13.0 | 0.00 | 0.00 | 0.00 | 70 | 1012.0 |
| 20260505050237 | 36 | 311 | 10.0 | 14.0 | 0.00 | 0.00 | 0.00 | 71 | 1012.0 |